Regional Weather Roundup
Issued by NWS Upton, NY

Current Version | Previous Version | Text Only | Print | Product List | Glossary On
Versions: 1 2 3 4 5 6 7 8 9 10 11 12 13 14 15 16 17 18 19 20 21 22 23 24 25 26 27 28 29 30 31 32 33 34 35 36 37 38 39 40 41 42 43 44 45 46 47 48 49 50
788
ASUS41 KOKX 192100
RWROKX

REGIONAL WEATHER ROUNDUP
NATIONAL WEATHER SERVICE NEW YORK NY
400 PM EST SUN NOV 19 2017

NOTE: "FAIR" INDICATES FEW OR NO CLOUDS BELOW 12,000 FEET WITH NO
SIGNIFICANT WEATHER AND/OR OBSTRUCTIONS TO VISIBILITY.

NYZ071-072-176-178-NJZ106-104-192200-
NEW YORK CITY METRO AREA

CITY           SKY/WX    TMP DP  RH WIND       PRES   REMARKS
Central Park   CLEAR     46  26  45 NW15G28   29.62
Bronx Bot Gard NOT AVBL
LaGuardia APRT PTCLDY    48  29  47 NW29G38   29.59R
Kennedy INTL   PTCLDY    47  27  45 NW22G32   29.60R
Breezy Point   NOT AVBL
Newark/Liberty PTCLDY    48  26  42 NW20G28   29.61R
Teterboro      CLEAR     47  26  44 NW17G31   29.60R
$$

NYZ177-179-078>081-192200-
LONG ISLAND NEW YORK

CITY           SKY/WX    TMP DP  RH WIND       PRES   REMARKS
Jones Beach    NOT AVBL
Matinecock PT  NOT AVBL
Farmingdale    PTCLDY    46  28  49 NW17G36   29.58R
MacArthur/ISP  NOT AVBL
Shirley        NOT AVBL
Mt Sinai Harb  NOT AVBL
Westhampton    PTCLDY    46  29  51 W20G33    29.55R
East Hampton   FAIR      47  30  53 W16G28    29.49R
Southold       NOT AVBL
Montauk        NOT AVBL
$$

NYZ052-065-067-192200-
HUDSON VALLEY

CITY           SKY/WX    TMP DP  RH WIND       PRES   REMARKS
White Plains   NOT AVBL
Larchmont Harb NOT AVBL
Croton On Huds NOT AVBL
Newburgh       MOCLDY    41  30  65 NW18G28   29.61R
Montgomery     CLOUDY    42  28  57 W14G20    29.60R
Poughkeepsie   CLOUDY    43  25  49 W13G29    29.59R
Albany         MOCLDY    38  26  62 NW15G31   29.59R WCI  29
$$

NJZ001-105-106-008-010-013-015-019>022-104-192200-
NEW JERSEY

CITY           SKY/WX    TMP DP  RH WIND       PRES   REMARKS
Newark/Liberty PTCLDY    48  26  42 NW20G28   29.61R
Teterboro      CLEAR     47  26  44 NW17G31   29.60R
Caldwell       PTCLDY    46  26  45 NW12G21   29.61R
Somerville     CLOUDY    50  28  42 NW10G22   29.60R
Linden         FAIR      49  27  43 NW14G22   29.60R
Perth Amboy    NOT AVBL
Sussex         CLOUDY    44  26  49 W9        29.62R
Andover        NOT AVBL
Trenton        MOCLDY    50  28  42 NW14G23   29.62R
Millville      PTCLDY    51  31  46 W17G28    29.68R
Atlantic City  CLEAR     51  30  44 W16G29    29.64R
Wrightstown    MOCLDY    50  30  46 W15G25    29.61R
Toms River     PTCLDY    50  30  46 W23G31    29.62R
Belmar         CLEAR     50  27  40 W18G38    29.61R
$$

PAZ047>061-062-071-192200-
EASTERN PENNSYLVANIA

CITY           SKY/WX    TMP DP  RH WIND       PRES   REMARKS
Philadelphia   MOCLDY    50  26  39 W17G28    29.68R
Allentown      CLOUDY    48  29  47 W14G26    29.63R
Scranton       CLOUDY    43  26  51 NW14G22   29.63R
$$

CTZ002-004>006-009-010-012-RIZ004-006-007-MAZ004-011-015-192200-
SOUTHERN NEW ENGLAND
 IN CT

CITY           SKY/WX    TMP DP  RH WIND       PRES   REMARKS
Bradley INTL   MOCLDY    43  27  53 NW22G37   29.52R
Hartford       PTCLDY    46  27  47 NW22G40   29.52R
Danbury        CLOUDY    43  27  53 NW18G29   29.57R
Wtrbury/Oxford MOCLDY    41  27  57 NW12G21   29.52R
Norwalk Harbor NOT AVBL
Bridgeport     MOCLDY    46  28  49 W20G35    29.54R
Meriden        CLEAR     45  27  49 NW20G32   29.51R
New Haven      PTCLDY    47  29  49 W14G29    29.53R
Chester        FAIR      46  27  46 NW13G25   29.48R
Groton         NOT AVBL
Wilimantic     MOCLDY    46  29  51 W13G28    29.48R

 IN RI

CITY           SKY/WX    TMP DP  RH WIND       PRES   REMARKS
Providence     NOT AVBL
Block Island   PTCLDY    48  32  53 NW16G31   29.47R
Westerly       CLEAR     49  29  46 VRB6G20   29.47R
 IN MA

CITY           SKY/WX    TMP DP  RH WIND       PRES   REMARKS
Boston         PTCLDY    44  28  53 W25G46    29.38R
Worcester      CLEAR     37  24  59 W21G38    29.40R WCI  26
Westfield      CLOUDY    41  27  57 NW14G30   29.51R
Provincetown   CLEAR     47  34  60 W22G33    29.37R
Nantucket      CLEAR     49  35  58 W17G30    29.40R
$$

ANZ330-335-338-340-345-350-353-355-192200-
COASTAL MARINE OBSERVATIONS


STATION/POSITION TIME  SKY/WX   TEMP    WIND        PRES    VSBY  WAVE
                                AIR SEA DIR/SP/G                  HT/PER
                 (UTC)          (F)     (DEG/KT/KT) (MB)    (MI)  (FT/S)
NY HARB ENTRANCE 1950            52 58  300/ 27/ 33  999.1          6/ 5
20 S FIRE ISLAND 1950            52 57  310/ 27/ 35  999.0         10/ 7
GREAT SOUTH BAY  2015            47 47  300/ 19/ 29   N/A
HUDSON CANYON    1950            54 60  310/ 25/ 31  999.5         14/ 9
KINGS POINT      2024            47 52  350/ 19/ 25 1002.4
EXECUTION ROCKS  2030            48     280/ 21/ 29   N/A
WESTERN LI SOUND 1949            47     300/ 21/ 33   N/A           3/ 3
CENTRAL LI SOUND 1945            50     280/ 25/ 31   N/A           7
ROBBINS REEF     2024            47     310/ 18/ 27 1002.0
$$


>>>>>>>>>>>>>>>>>>>>>>>>>>>> KEY <<<<<<<<<<<<<<<<<<<<<<<<<<<
>                                                          <
>     SKY/WX - Sky Condition/Present Weather               <
>     TMP    - Temperature in Fahrenheit                   <
>     DP     - Dew Point in Fahrenheit                     <
>     RH     - Relative Humidity in Percent                <
>     WIND   - Direction (from) and Speed in MPH           <
>     PRES   - Mean Sea Level Pressure (inches of Hg)      <
>     WCI    - Wind Chill Index                            <
>     VSB    - VISIBILITY IN MILES                         <
>     HX     - HEAT INDEX                                  <
>     TC     - TEMPERATURE IN CELSIUS                      <
>     VRB    - VARIABLE WIND DIRECTION                     <
>                                                          <
>>>>>>>>>>>>>>>>>>>>>>>>>>>> KEY <<<<<<<<<<<<<<<<<<<<<<<<<<<




USA.gov is the U.S. government's official web portal to all federal, state and local government web resources and services.